Location: Newark
(40.9833°N, 0.0333°W)
Time: 08:07:46
(UTC+00:00)

Transit 4A - Pass Details

Date: 04 November 2020
Orbit: 862 x 982 km, 66.8° (Epoch: 28 November)

Event Time Altitude Azimuth Distance (km) Brightness Sun altitude
Rises 20:02:48 0° 339° (NNW) 3,694 11.4 -36.3°
Enters shadow 20:06:30 - 1° (N) 2,844 10.5 -37.0°
Reaches altitude 10° 20:07:08 10° 6° (N) 2,740 - -37.1°
Maximum altitude 20:10:00 13° 32° (NNE) 2,509 - -37.6°
Drops below altitude 10° 20:12:50 10° 59° (ENE) 2,720 - -38.1°
Sets 20:17:05 0° 86° (E) 3,643 - -38.9°
